M I D A S
Marine Information and Data Acquisition System
Tripno 1600 of the Zeeleeuw from 2008-10-31 07:38:19 to 2008-10-31 15:32:40
Back to CruiseResearch ActivitiesStationsMapUnderway DataData graphs

EquipmentUnitsComments
TimeDGPSUTC
LatitudeDGPSDM.mWGS84
LongitudeDGPSDM.mWGS84
SpeedMeteo Stationm/sRelative wind speed
DirectionMeteo StationdegRelative wind direction
TemperatureMeteo Stationdeg CelciusAir temperature
PressureMeteo StationPaAtmospheric pressure
HumidityMeteo Station%Relative humidity
Missing or incorrect values are displayed as -999
Metereological data collected by the RV Zeeleeuw from 2008-10-31 07:39:31 to 2008-10-31 15:34:55
                                                                                    Next 1000 lines
Time Latitude Longitude Speed Direction Temperature Pressure Humidity
2008-10-31 07:39:43 51°13.624 2°56.041 2 259 4.2 100380 85
2008-10-31 07:39:48 51°13.625 2°56.037 1.2 238 4.2 100380 85
2008-10-31 07:39:53 51°13.625 2°56.033 1 286 4.2 100380 85
2008-10-31 07:39:58 51°13.626 2°56.028 0.9 257 4.2 100380 85
2008-10-31 07:40:04 51°13.628 2°56.021 1.1 79 4.2 100390 85
2008-10-31 07:40:09 51°13.629 2°56.014 1.1 39 4.2 100390 85
2008-10-31 07:40:15 51°13.631 2°56.006 0.8 286 4.2 100380 85
2008-10-31 07:40:20 51°13.633 2°55.998 1 261 4.2 100380 85
2008-10-31 07:40:26 51°13.635 2°55.989 0.9 287 4.2 100390 85
2008-10-31 07:40:31 51°13.636 2°55.981 0.8 252 4.2 100390 85
2008-10-31 07:40:36 51°13.638 2°55.973 0.6 288 4.2 100380 85
2008-10-31 07:40:41 51°13.64 2°55.965 0.8 261 4.2 100380 85
2008-10-31 07:40:46 51°13.641 2°55.956 0.8 287 4.2 100380 85
2008-10-31 07:40:51 51°13.643 2°55.947 0.9 260 4.2 100380 85
2008-10-31 07:40:56 51°13.646 2°55.937 0.8 279 4.2 100380 85
2008-10-31 07:41:01 51°13.648 2°55.928 1 36 4.2 100380 85
2008-10-31 07:41:06 51°13.65 2°55.918 1.9 77 4.2 100380 85
2008-10-31 07:41:11 51°13.653 2°55.908 1.9 32 4.2 100380 85
2008-10-31 07:41:16 51°13.656 2°55.899 1.7 74 4.3 100380 85
2008-10-31 07:41:21 51°13.659 2°55.889 2.2 33 4.3 100380 85
2008-10-31 07:41:26 51°13.662 2°55.88 1.7 284 4.3 100380 85
2008-10-31 07:41:31 51°13.665 2°55.872 1.8 256 4.3 100380 85
2008-10-31 07:41:36 51°13.668 2°55.863 2.1 280 4.3 100380 86
2008-10-31 07:41:41 51°13.671 2°55.855 1.7 263 4.3 100380 86
2008-10-31 07:41:46 51°13.674 2°55.847 2.7 25 4.3 100380 85
2008-10-31 07:41:51 51°13.677 2°55.84 3.6 261 4.3 100380 85
2008-10-31 07:41:56 51°13.68 2°55.832 2.3 280 4.3 100390 85
2008-10-31 07:42:01 51°13.683 2°55.825 3.9 257 4.3 100390 85
2008-10-31 07:42:06 51°13.685 2°55.818 3 281 4.3 100400 85
2008-10-31 07:42:11 51°13.688 2°55.812 2.6 241 4.3 100400 85
2008-10-31 07:42:16 51°13.69 2°55.807 3.7 281 4.2 100390 84
2008-10-31 07:42:21 51°13.692 2°55.803 3.8 251 4.2 100390 84
2008-10-31 07:42:26 51°13.692 2°55.802 2.9 284 4.2 100390 85
2008-10-31 07:42:31 51°13.693 2°55.801 3.5 317 4.2 100390 85
2008-10-31 07:42:35 51°13.694 2°55.8 3.6 284 4.2 100390 86
2008-10-31 07:42:40 51°13.694 2°55.798 2.6 320 4.2 100390 86
2008-10-31 07:42:45 51°13.695 2°55.796 2.5 21 4.3 100390 84
2008-10-31 07:42:50 51°13.695 2°55.793 2.1 35 4.3 100390 84
2008-10-31 07:42:55 51°13.696 2°55.79 2.2 286 4.2 100390 85
2008-10-31 07:42:59 51°13.696 2°55.787 1.6 32 4.2 100390 85
2008-10-31 07:43:04 51°13.697 2°55.782 2.4 279 4.2 100390 85
2008-10-31 07:43:09 51°13.697 2°55.777 3.2 32 4.2 100390 85
2008-10-31 07:43:15 51°13.698 2°55.77 2.8 279 4.2 100390 85
2008-10-31 07:43:20 51°13.698 2°55.764 2.3 36 4.2 100390 85
2008-10-31 07:43:25 51°13.698 2°55.758 1.7 282 4.3 100390 85
2008-10-31 07:43:31 51°13.698 2°55.751 2.7 317 4.3 100390 85
2008-10-31 07:43:36 51°13.698 2°55.746 3.3 280 4.3 100390 85
2008-10-31 07:43:41 51°13.698 2°55.741 3.3 326 4.3 100390 85
2008-10-31 07:43:46 51°13.698 2°55.737 3.4 319 4.2 100390 86
2008-10-31 07:43:51 51°13.698 2°55.734 2.5 38 4.2 100390 86
2008-10-31 07:43:56 51°13.698 2°55.732 1.8 285 4.3 100390 85
2008-10-31 07:44:01 51°13.698 2°55.73 2 331 4.3 100390 85
2008-10-31 07:44:06 51°13.698 2°55.729 1.8 285 4.3 100390 85
2008-10-31 07:44:11 51°13.698 2°55.728 1.9 318 4.3 100390 85
2008-10-31 07:44:16 51°13.698 2°55.727 3.7 283 4.3 100390 85
2008-10-31 07:44:20 51°13.698 2°55.727 2.7 332 4.3 100390 85
2008-10-31 07:44:25 51°13.698 2°55.727 3.2 281 4.2 100390 85
2008-10-31 07:44:30 51°13.699 2°55.727 3.2 338 4.2 100390 85
2008-10-31 07:44:35 51°13.699 2°55.728 2.6 281 4.3 100390 85
2008-10-31 07:44:40 51°13.7 2°55.729 3.2 335 4.3 100390 85
2008-10-31 07:44:44 51°13.701 2°55.73 2.7 347 4.3 100390 85
2008-10-31 07:44:49 51°13.702 2°55.731 2.9 339 4.3 100390 85
2008-10-31 07:44:53 51°13.703 2°55.731 2.3 280 4.3 100390 84
2008-10-31 07:44:59 51°13.704 2°55.733 3.5 334 4.3 100390 84
2008-10-31 07:45:03 51°13.706 2°55.734 2.7 280 4.3 100390 85
2008-10-31 07:45:08 51°13.708 2°55.735 3.7 339 4.3 100390 85
2008-10-31 07:45:12 51°13.71 2°55.736 4.1 353 4.3 100390 86
2008-10-31 07:45:18 51°13.715 2°55.737 3.2 355 4.3 100390 86
2008-10-31 07:45:23 51°13.719 2°55.737 3.2 355 4.3 100390 86
2008-10-31 07:45:28 51°13.724 2°55.736 2.6 344 4.3 100390 86
2008-10-31 07:45:32 51°13.728 2°55.734 3.3 351 4.3 100390 86
2008-10-31 07:45:38 51°13.735 2°55.73 3.8 346 4.3 100390 86
2008-10-31 07:45:43 51°13.741 2°55.725 3.7 355 4.3 100390 86
2008-10-31 07:45:48 51°13.747 2°55.72 3.1 341 4.3 100390 86
2008-10-31 07:45:52 51°13.752 2°55.715 3.8 282 4.3 100380 85
2008-10-31 07:45:58 51°13.761 2°55.706 2.9 347 4.3 100380 85
2008-10-31 07:46:03 51°13.768 2°55.698 4 350 4.3 100390 86
2008-10-31 07:46:08 51°13.776 2°55.69 4 343 4.3 100390 86
2008-10-31 07:46:12 51°13.782 2°55.683 4.9 284 4.3 100390 85
2008-10-31 07:46:18 51°13.792 2°55.674 4.2 325 4.3 100390 85
2008-10-31 07:46:23 51°13.801 2°55.665 4.9 347 4.3 100390 85
2008-10-31 07:46:28 51°13.809 2°55.657 3.6 339 4.3 100390 85
2008-10-31 07:46:33 51°13.819 2°55.649 6.7 280 4.3 100390 85
2008-10-31 07:46:38 51°13.828 2°55.64 7.1 348 4.3 100390 85
2008-10-31 07:46:43 51°13.837 2°55.632 7.1 349 4.3 100390 86
2008-10-31 07:46:48 51°13.846 2°55.624 5 351 4.3 100390 86
2008-10-31 07:46:52 51°13.853 2°55.618 5.5 353 4.3 100380 85
2008-10-31 07:46:58 51°13.864 2°55.609 5.4 351 4.3 100380 85
2008-10-31 07:47:03 51°13.872 2°55.602 4.2 284 4.3 100390 85
2008-10-31 07:47:08 51°13.881 2°55.595 3.3 350 4.3 100390 85
2008-10-31 07:47:12 51°13.888 2°55.589 4.9 285 4.3 100390 86
2008-10-31 07:47:18 51°13.898 2°55.581 4.6 344 4.3 100390 86
2008-10-31 07:47:23 51°13.906 2°55.574 4.5 351 4.3 100390 86
2008-10-31 07:47:28 51°13.914 2°55.567 4.2 4 4.3 100390 86
2008-10-31 07:47:32 51°13.92 2°55.561 5.2 352 4.3 100390 85
2008-10-31 07:47:38 51°13.929 2°55.553 4.5 355 4.3 100390 85
2008-10-31 07:47:43 51°13.938 2°55.547 5 352 4.3 100390 86
2008-10-31 07:47:48 51°13.946 2°55.541 4.1 348 4.3 100390 86
2008-10-31 07:47:52 51°13.952 2°55.536 4.4 352 4.3 100390 86
2008-10-31 07:47:58 51°13.962 2°55.529 4.7 354 4.3 100390 86
2008-10-31 07:48:03 51°13.97 2°55.522 4.2 348 4.3 100390 85
2008-10-31 07:48:08 51°13.978 2°55.516 4.5 350 4.3 100390 85
2008-10-31 07:48:12 51°13.985 2°55.511 5.3 355 4.3 100390 85
2008-10-31 07:48:18 51°13.995 2°55.504 5.1 354 4.3 100390 85
2008-10-31 07:48:23 51°14.003 2°55.497 4.7 352 4.3 100390 87
2008-10-31 07:48:28 51°14.012 2°55.491 3.9 349 4.3 100390 87
2008-10-31 07:48:32 51°14.019 2°55.485 6.4 355 4.4 100390 86
2008-10-31 07:48:38 51°14.029 2°55.477 6.2 351 4.4 100390 86
2008-10-31 07:48:43 51°14.038 2°55.47 5.9 354 4.3 100390 86
2008-10-31 07:48:48 51°14.048 2°55.463 8.1 2 4.3 100390 86
2008-10-31 07:48:53 51°14.058 2°55.455 4.9 281 4.3 100390 85
2008-10-31 07:48:58 51°14.068 2°55.447 5.2 344 4.3 100390 85
2008-10-31 07:49:03 51°14.079 2°55.439 8.3 350 4.3 100390 85
2008-10-31 07:49:08 51°14.09 2°55.43 7.1 349 4.3 100390 85
2008-10-31 07:49:13 51°14.101 2°55.422 6.3 358 4.3 100390 86
2008-10-31 07:49:18 51°14.113 2°55.413 6.5 353 4.3 100390 86
2008-10-31 07:49:23 51°14.124 2°55.404 6 281 4.3 100390 86
2008-10-31 07:49:28 51°14.136 2°55.395 6.6 347 4.3 100390 86
2008-10-31 07:49:32 51°14.146 2°55.387 5.4 349 4.3 100390 85
2008-10-31 07:49:38 51°14.16 2°55.374 4.5 351 4.3 100390 85
2008-10-31 07:49:43 51°14.172 2°55.362 5.7 346 4.3 100390 86
2008-10-31 07:49:48 51°14.184 2°55.35 7.5 356 4.3 100390 86
2008-10-31 07:49:53 51°14.196 2°55.337 5.3 354 4.3 100390 86
2008-10-31 07:49:58 51°14.208 2°55.324 7.2 349 4.3 100390 86
2008-10-31 07:50:03 51°14.22 2°55.309 6.2 281 4.3 100390 85
2008-10-31 07:50:08 51°14.232 2°55.294 6.6 354 4.3 100390 85
2008-10-31 07:50:12 51°14.242 2°55.282 7.1 350 4.3 100390 85
2008-10-31 07:50:18 51°14.256 2°55.262 5.9 353 4.3 100390 85
2008-10-31 07:50:23 51°14.267 2°55.244 7 353 4.3 100390 85
2008-10-31 07:50:28 51°14.277 2°55.226 6.1 358 4.3 100390 85
2008-10-31 07:50:32 51°14.286 2°55.211 6.5 3 4.3 100400 85
2008-10-31 07:50:38 51°14.298 2°55.188 5.4 1 4.3 100400 85
2008-10-31 07:50:43 51°14.308 2°55.168 4.9 2 4.4 100390 85
2008-10-31 07:50:48 51°14.317 2°55.148 6.4 4 4.4 100390 85
2008-10-31 07:50:53 51°14.327 2°55.128 5.5 4 4.4 100390 86
2008-10-31 07:50:58 51°14.336 2°55.107 4.8 5 4.4 100390 86
2008-10-31 07:51:03 51°14.345 2°55.085 5.1 4 4.4 100390 85
2008-10-31 07:51:08 51°14.354 2°55.064 5.1 10 4.4 100390 85
2008-10-31 07:51:12 51°14.361 2°55.046 5.5 7 4.4 100390 86
2008-10-31 07:51:18 51°14.371 2°55.02 5.8 8 4.4 100390 86
2008-10-31 07:51:23 51°14.379 2°54.997 6.2 11 4.4 100390 85
2008-10-31 07:51:28 51°14.388 2°54.975 5.9 5 4.4 100390 85
2008-10-31 07:51:32 51°14.394 2°54.956 5.8 16 4.4 100390 85
2008-10-31 07:51:38 51°14.404 2°54.929 5.7 10 4.4 100390 85
2008-10-31 07:51:43 51°14.413 2°54.906 6.2 1 4.4 100390 85
2008-10-31 07:51:48 51°14.423 2°54.885 6.3 -999 4.4 100390 85
2008-10-31 07:51:52 51°14.432 2°54.869 6.8 6 4.4 100390 86
2008-10-31 07:51:58 51°14.447 2°54.846 6.4 6 4.4 100390 86
2008-10-31 07:52:03 51°14.459 2°54.828 5.8 8 4.4 100390 86
2008-10-31 07:52:08 51°14.472 2°54.81 5.5 5 4.4 100390 86
2008-10-31 07:52:12 51°14.482 2°54.798 8.6 4 4.5 100390 86
2008-10-31 07:52:18 51°14.499 2°54.78 7 1 4.5 100390 86
2008-10-31 07:52:22 51°14.51 2°54.769 7.2 6 4.5 100380 86
2008-10-31 07:52:28 51°14.527 2°54.752 8 5 4.5 100380 86
2008-10-31 07:52:33 51°14.541 2°54.737 8.3 5 4.5 100380 86
2008-10-31 07:52:38 51°14.555 2°54.722 8.7 7 4.5 100380 86
2008-10-31 07:52:43 51°14.568 2°54.706 8.5 6 4.6 100380 86
2008-10-31 07:52:48 51°14.582 2°54.69 7.3 7 4.6 100380 86
2008-10-31 07:52:52 51°14.593 2°54.678 7.8 7 4.6 100380 85
2008-10-31 07:52:58 51°14.609 2°54.659 7.5 8 4.6 100380 85
2008-10-31 07:53:03 51°14.623 2°54.644 6.9 8 4.6 100370 86
2008-10-31 07:53:08 51°14.637 2°54.627 6 6 4.6 100370 86
2008-10-31 07:53:12 51°14.648 2°54.615 6.5 7 4.6 100380 86
2008-10-31 07:53:18 51°14.664 2°54.596 8 4 4.6 100380 86
2008-10-31 07:53:23 51°14.678 2°54.58 6 4 4.6 100380 86
2008-10-31 07:53:28 51°14.692 2°54.565 7.1 359 4.6 100380 86
2008-10-31 07:53:32 51°14.703 2°54.552 8.4 359 4.6 100380 85
2008-10-31 07:53:38 51°14.719 2°54.534 7.7 6 4.6 100380 85
2008-10-31 07:53:43 51°14.733 2°54.519 7.7 5 4.6 100390 84
2008-10-31 07:53:48 51°14.747 2°54.503 8.3 7 4.6 100390 84
2008-10-31 07:53:52 51°14.758 2°54.491 8.6 9 4.6 100380 86
2008-10-31 07:53:58 51°14.775 2°54.474 7.8 7 4.6 100380 86
2008-10-31 07:54:03 51°14.788 2°54.459 6.3 7 4.7 100380 85
2008-10-31 07:54:08 51°14.802 2°54.445 7.5 2 4.7 100380 85
2008-10-31 07:54:12 51°14.813 2°54.433 7.2 2 4.7 100370 86
2008-10-31 07:54:18 51°14.83 2°54.416 6.3 3 4.7 100370 86
2008-10-31 07:54:23 51°14.843 2°54.401 5.8 6 4.8 100370 86
2008-10-31 07:54:28 51°14.857 2°54.387 8.3 5 4.8 100370 86
2008-10-31 07:54:32 51°14.868 2°54.375 7.4 6 4.8 100370 87
2008-10-31 07:54:38 51°14.885 2°54.358 8.1 9 4.8 100370 87
2008-10-31 07:54:42 51°14.896 2°54.347 7.5 9 4.8 100370 85
2008-10-31 07:54:48 51°14.912 2°54.331 8.1 360 4.8 100370 85
2008-10-31 07:54:53 51°14.926 2°54.317 7.2 3 4.8 100380 86
2008-10-31 07:54:58 51°14.94 2°54.304 7.4 2 4.8 100380 86
2008-10-31 07:55:03 51°14.954 2°54.291 7.7 359 4.8 100370 85
2008-10-31 07:55:08 51°14.967 2°54.278 6.7 1 4.8 100370 85
2008-10-31 07:55:13 51°14.981 2°54.265 7 3 4.8 100380 85
2008-10-31 07:55:18 51°14.995 2°54.252 7.1 3 4.8 100380 85
2008-10-31 07:55:23 51°15.009 2°54.239 6.6 5 4.8 100380 86
2008-10-31 07:55:28 51°15.023 2°54.226 7.2 8 4.8 100380 86
2008-10-31 07:55:32 51°15.034 2°54.216 5.8 1 4.8 100380 86
2008-10-31 07:55:38 51°15.051 2°54.201 7.2 7 4.8 100380 86
2008-10-31 07:55:43 51°15.065 2°54.188 8.6 9 4.8 100370 86
2008-10-31 07:55:48 51°15.078 2°54.175 7 6 4.8 100370 86
2008-10-31 07:55:52 51°15.09 2°54.164 7 7 4.8 100370 85
2008-10-31 07:55:58 51°15.106 2°54.149 8 4 4.8 100370 85
2008-10-31 07:56:03 51°15.12 2°54.135 7.1 6 4.9 100380 87
2008-10-31 07:56:08 51°15.134 2°54.122 6.6 4 4.9 100380 87
2008-10-31 07:56:12 51°15.145 2°54.111 7 6 4.9 100370 86
2008-10-31 07:56:18 51°15.162 2°54.096 6.3 8 4.9 100370 86
2008-10-31 07:56:23 51°15.176 2°54.082 6.2 5 4.9 100380 85
2008-10-31 07:56:28 51°15.19 2°54.069 6.9 6 4.9 100380 85
2008-10-31 07:56:32 51°15.201 2°54.058 5.9 6 4.8 100380 85
2008-10-31 07:56:38 51°15.218 2°54.042 6.1 7 4.8 100380 85
2008-10-31 07:56:43 51°15.232 2°54.028 8.3 9 4.8 100380 85
2008-10-31 07:56:48 51°15.246 2°54.015 6.9 8 4.8 100380 85
2008-10-31 07:56:52 51°15.258 2°54.004 5.9 5 4.8 100380 85
2008-10-31 07:56:58 51°15.275 2°53.989 6.5 2 4.8 100380 85
2008-10-31 07:57:03 51°15.289 2°53.975 7.2 3 4.8 100370 86
2008-10-31 07:57:08 51°15.302 2°53.962 7.4 1 4.8 100370 86
2008-10-31 07:57:12 51°15.314 2°53.95 7 3 4.8 100380 85
2008-10-31 07:57:18 51°15.331 2°53.935 8.5 3 4.8 100380 85
2008-10-31 07:57:23 51°15.345 2°53.92 8 2 4.9 100380 85
2008-10-31 07:57:28 51°15.359 2°53.908 7.2 6 4.9 100380 85
2008-10-31 07:57:32 51°15.37 2°53.897 7.3 4 4.8 100380 85
2008-10-31 07:57:38 51°15.386 2°53.88 7.1 5 4.8 100380 85
2008-10-31 07:57:43 51°15.4 2°53.866 7.1 6 4.9 100380 85
2008-10-31 07:57:48 51°15.414 2°53.853 7.7 6 4.9 100380 85
2008-10-31 07:57:52 51°15.425 2°53.842 7 3 4.8 100370 85
2008-10-31 07:57:58 51°15.442 2°53.826 6.7 3 4.8 100370 85
2008-10-31 07:58:03 51°15.456 2°53.812 7.4 1 4.8 100370 85
2008-10-31 07:58:08 51°15.47 2°53.798 7.4 3 4.8 100370 85
2008-10-31 07:58:12 51°15.481 2°53.787 6.9 5 4.8 100380 85
2008-10-31 07:58:18 51°15.498 2°53.771 6.2 3 4.8 100380 85
2008-10-31 07:58:23 51°15.512 2°53.757 5.9 6 4.8 100380 84
2008-10-31 07:58:28 51°15.527 2°53.744 6.3 3 4.8 100380 84
2008-10-31 07:58:32 51°15.538 2°53.734 6.1 3 4.8 100380 85
2008-10-31 07:58:38 51°15.555 2°53.718 7.3 5 4.8 100380 85
2008-10-31 07:58:43 51°15.57 2°53.706 6.5 3 4.8 100370 84
2008-10-31 07:58:48 51°15.584 2°53.693 7.9 6 4.8 100370 84
2008-10-31 07:58:52 51°15.596 2°53.683 7.5 6 4.9 100380 86
2008-10-31 07:58:58 51°15.613 2°53.668 7.1 4 4.9 100380 86
2008-10-31 07:59:03 51°15.627 2°53.656 7.2 6 4.9 100380 84
2008-10-31 07:59:08 51°15.642 2°53.643 8.3 5 4.9 100380 84
2008-10-31 07:59:12 51°15.653 2°53.633 6.4 1 4.8 100370 85
2008-10-31 07:59:18 51°15.671 2°53.618 7.9 359 4.8 100370 85
2008-10-31 07:59:22 51°15.682 2°53.608 8.1 358 4.9 100380 84
2008-10-31 07:59:28 51°15.7 2°53.593 7.7 359 4.9 100380 84
2008-10-31 07:59:33 51°15.714 2°53.581 8.3 359 4.9 100370 85
2008-10-31 07:59:38 51°15.728 2°53.568 7.9 359 4.9 100370 85
2008-10-31 07:59:43 51°15.743 2°53.555 7.2 1 4.9 100380 86
2008-10-31 07:59:48 51°15.757 2°53.543 7.4 2 4.9 100380 86
2008-10-31 07:59:52 51°15.769 2°53.532 8.2 2 4.9 100380 86
2008-10-31 07:59:58 51°15.786 2°53.517 7.1 6 4.9 100380 86
2008-10-31 08:00:03 51°15.8 2°53.505 7.7 7 4.9 100370 85
2008-10-31 08:00:08 51°15.815 2°53.492 7.3 4 4.9 100370 85
2008-10-31 08:00:12 51°15.826 2°53.482 6.8 5 4.9 100380 85
2008-10-31 08:00:18 51°15.844 2°53.467 7.2 6 4.9 100380 85
2008-10-31 08:00:23 51°15.858 2°53.454 6.2 3 4.9 100370 85
2008-10-31 08:00:28 51°15.872 2°53.442 6.1 7 4.9 100370 85
2008-10-31 08:00:32 51°15.884 2°53.432 7.9 359 4.9 100370 85
2008-10-31 08:00:38 51°15.901 2°53.416 8.4 -999 4.9 100370 85
2008-10-31 08:00:43 51°15.915 2°53.403 7.8 1 4.9 100380 86
2008-10-31 08:00:48 51°15.929 2°53.39 7.3 5 4.9 100380 86
2008-10-31 08:00:52 51°15.941 2°53.38 7.4 5 5 100370 86
2008-10-31 08:00:58 51°15.958 2°53.364 6.9 5 5 100370 86
2008-10-31 08:01:03 51°15.972 2°53.352 7.1 4 5 100380 85
2008-10-31 08:01:08 51°15.987 2°53.34 6.9 6 5 100380 85
2008-10-31 08:01:12 51°15.999 2°53.33 6.8 359 4.9 100370 85
2008-10-31 08:01:18 51°16.016 2°53.315 8.6 1 4.9 100370 85
2008-10-31 08:01:23 51°16.03 2°53.302 7.7 5 4.9 100370 85
2008-10-31 08:01:28 51°16.045 2°53.29 8.8 1 4.9 100370 85
2008-10-31 08:01:32 51°16.057 2°53.28 8.3 5 5 100380 85
2008-10-31 08:01:38 51°16.074 2°53.266 6.8 7 5 100380 85
2008-10-31 08:01:43 51°16.089 2°53.254 6.8 6 5 100370 86
2008-10-31 08:01:48 51°16.104 2°53.242 6.2 6 5 100370 86
2008-10-31 08:01:52 51°16.116 2°53.232 9.1 9 5 100370 86
2008-10-31 08:01:58 51°16.134 2°53.217 9.6 8 5 100370 86
2008-10-31 08:02:03 51°16.148 2°53.203 8.5 8 5 100370 85
2008-10-31 08:02:08 51°16.162 2°53.19 7 6 5 100370 85
2008-10-31 08:02:12 51°16.173 2°53.179 7 6 5 100370 85
2008-10-31 08:02:18 51°16.19 2°53.163 7.9 9 5 100370 85
2008-10-31 08:02:23 51°16.204 2°53.149 7.1 8 5 100370 86
2008-10-31 08:02:28 51°16.218 2°53.136 7.6 9 5 100370 86
2008-10-31 08:02:33 51°16.232 2°53.122 6 8 5.1 100380 85
2008-10-31 08:02:38 51°16.245 2°53.108 6.8 8 5.1 100380 85
2008-10-31 08:02:43 51°16.259 2°53.094 6.4 6 5 100380 85
2008-10-31 08:02:48 51°16.273 2°53.08 7.3 6 5 100380 85
2008-10-31 08:02:52 51°16.285 2°53.069 6.8 7 5 100380 85
2008-10-31 08:02:58 51°16.302 2°53.053 6.3 -999 5 100380 85
2008-10-31 08:03:03 51°16.316 2°53.041 7.1 7 5 100380 85
2008-10-31 08:03:08 51°16.33 2°53.028 7.1 1 5 100380 85
2008-10-31 08:03:12 51°16.342 2°53.018 7.2 -999 5 100380 86
2008-10-31 08:03:18 51°16.359 2°53.003 8.3 6 5 100380 86
2008-10-31 08:03:23 51°16.373 2°52.992 9.1 7 5 100380 86
2008-10-31 08:03:28 51°16.388 2°52.98 6.6 3 5 100380 86
2008-10-31 08:03:32 51°16.4 2°52.971 7.9 2 5.1 100370 86
2008-10-31 08:03:38 51°16.417 2°52.957 7.7 2 5.1 100370 86
2008-10-31 08:03:43 51°16.432 2°52.945 8.8 4 5.1 100370 86
2008-10-31 08:03:48 51°16.446 2°52.934 8.7 358 5.1 100370 86
2008-10-31 08:03:52 51°16.458 2°52.924 8.7 360 5.1 100370 87
2008-10-31 08:03:58 51°16.476 2°52.91 6.6 360 5.1 100370 87
2008-10-31 08:04:03 51°16.49 2°52.898 8.7 2 5.1 100370 86
2008-10-31 08:04:08 51°16.505 2°52.887 7.8 8 5.1 100370 86
2008-10-31 08:04:12 51°16.517 2°52.877 7.2 4 5.1 100370 85
2008-10-31 08:04:18 51°16.535 2°52.863 7.7 1 5.1 100370 85
2008-10-31 08:04:23 51°16.55 2°52.852 8.1 3 5.1 100370 86
2008-10-31 08:04:28 51°16.564 2°52.841 8.4 1 5.1 100370 86
2008-10-31 08:04:33 51°16.579 2°52.829 7.2 5 5.1 100370 86
2008-10-31 08:04:38 51°16.594 2°52.819 6.4 4 5.1 100370 86
2008-10-31 08:04:43 51°16.61 2°52.809 7.3 4 5.2 100370 86
2008-10-31 08:04:48 51°16.625 2°52.799 7.4 5 5.2 100370 86
2008-10-31 08:04:53 51°16.64 2°52.788 8.5 9 5.1 100370 87
2008-10-31 08:04:58 51°16.655 2°52.778 7.8 8 5.1 100370 87
2008-10-31 08:05:03 51°16.669 2°52.768 6.2 8 5.1 100370 85
2008-10-31 08:05:08 51°16.684 2°52.758 6.2 6 5.1 100370 85
2008-10-31 08:05:12 51°16.695 2°52.75 6 6 5.1 100370 86
2008-10-31 08:05:18 51°16.713 2°52.738 7 4 5.1 100370 86
2008-10-31 08:05:23 51°16.727 2°52.727 6.5 2 5.1 100370 86
2008-10-31 08:05:28 51°16.741 2°52.717 7.4 2 5.1 100370 86
2008-10-31 08:05:32 51°16.753 2°52.709 7.9 359 5.1 100380 86
2008-10-31 08:05:38 51°16.77 2°52.697 8 -999 5.1 100380 86
2008-10-31 08:05:43 51°16.784 2°52.686 7 -999 5.1 100380 87
2008-10-31 08:05:48 51°16.799 2°52.676 7.7 1 5.1 100380 87
2008-10-31 08:05:52 51°16.81 2°52.668 7.2 2 5.1 100380 85
2008-10-31 08:05:58 51°16.827 2°52.655 6.8 358 5.1 100380 85
2008-10-31 08:06:03 51°16.841 2°52.645 6.9 1 5.2 100370 86
2008-10-31 08:06:08 51°16.855 2°52.634 7.9 5 5.2 100370 86
2008-10-31 08:06:12 51°16.867 2°52.626 7.3 6 5.2 100370 86
2008-10-31 08:06:18 51°16.884 2°52.613 7.6 5 5.2 100370 86
2008-10-31 08:06:23 51°16.898 2°52.603 8.9 5 5.1 100380 86
2008-10-31 08:06:28 51°16.912 2°52.592 6.9 3 5.1 100380 86
2008-10-31 08:06:32 51°16.924 2°52.584 7.2 7 5.2 100370 87
2008-10-31 08:06:38 51°16.941 2°52.572 7.5 7 5.2 100370 87
2008-10-31 08:06:43 51°16.956 2°52.563 6.2 4 5.1 100370 86
2008-10-31 08:06:48 51°16.971 2°52.553 7.5 6 5.1 100370 86
2008-10-31 08:06:52 51°16.983 2°52.545 7.3 5 5.1 100380 85
2008-10-31 08:06:58 51°17 2°52.534 7.3 5 5.1 100380 85
2008-10-31 08:07:03 51°17.015 2°52.525 8.6 1 5.1 100380 87
2008-10-31 08:07:08 51°17.029 2°52.515 7.8 4 5.1 100380 87
2008-10-31 08:07:12 51°17.041 2°52.508 6.9 4 5.2 100380 87
2008-10-31 08:07:18 51°17.058 2°52.497 7.6 7 5.2 100380 87
2008-10-31 08:07:23 51°17.073 2°52.488 7.1 7 5.2 100370 87
2008-10-31 08:07:28 51°17.087 2°52.479 8.5 4 5.2 100370 87
2008-10-31 08:07:32 51°17.099 2°52.471 7.4 3 5.2 100380 87
2008-10-31 08:07:38 51°17.116 2°52.459 6.6 3 5.2 100380 87
2008-10-31 08:07:43 51°17.131 2°52.449 8.2 5 5.1 100370 86
2008-10-31 08:07:48 51°17.146 2°52.439 7.3 -999 5.1 100370 86
2008-10-31 08:07:52 51°17.157 2°52.431 6.8 5 5.1 100380 86
2008-10-31 08:07:58 51°17.175 2°52.419 7.8 1 5.1 100380 86
2008-10-31 08:08:03 51°17.189 2°52.409 7.1 -999 5.1 100370 85
2008-10-31 08:08:08 51°17.203 2°52.398 6.5 2 5.1 100370 85
2008-10-31 08:08:12 51°17.215 2°52.389 6.6 2 5.1 100380 85
2008-10-31 08:08:18 51°17.232 2°52.376 6.7 356 5.1 100380 85
2008-10-31 08:08:23 51°17.247 2°52.365 6 2 5.1 100390 85
2008-10-31 08:08:28 51°17.261 2°52.354 6.6 4 5.1 100390 85
2008-10-31 08:08:33 51°17.275 2°52.343 7.8 1 5.1 100380 85
2008-10-31 08:08:38 51°17.29 2°52.332 7.1 2 5.1 100380 85
2008-10-31 08:08:43 51°17.304 2°52.319 7 1 5.1 100380 86
2008-10-31 08:08:48 51°17.318 2°52.308 7 -999 5.1 100380 86
2008-10-31 08:08:52 51°17.329 2°52.298 7.4 2 5.1 100380 86
2008-10-31 08:08:58 51°17.346 2°52.283 7.1 1 5.1 100380 86
2008-10-31 08:09:03 51°17.36 2°52.271 3.3 1 5.2 100390 86
2008-10-31 08:09:08 51°17.374 2°52.259 5.9 360 5.2 100390 86
2008-10-31 08:09:12 51°17.385 2°52.249 6.2 3 5.2 100380 86
2008-10-31 08:09:18 51°17.402 2°52.234 6.6 358 5.2 100380 86
2008-10-31 08:09:23 51°17.415 2°52.221 6.6 1 5.2 100380 87
2008-10-31 08:09:28 51°17.429 2°52.209 6.6 360 5.2 100380 87
2008-10-31 08:09:32 51°17.441 2°52.198 6.7 355 5.1 100380 86
2008-10-31 08:09:38 51°17.457 2°52.182 7.7 355 5.1 100380 86
2008-10-31 08:09:43 51°17.47 2°52.169 6.8 353 5.2 100380 85
2008-10-31 08:09:48 51°17.484 2°52.155 6.7 359 5.2 100380 85
2008-10-31 08:09:52 51°17.494 2°52.145 6.3 357 5.2 100390 86
2008-10-31 08:09:58 51°17.51 2°52.129 6.5 357 5.2 100390 86
2008-10-31 08:10:03 51°17.524 2°52.116 6.3 1 5.2 100380 87
2008-10-31 08:10:08 51°17.537 2°52.102 5.9 357 5.2 100380 87
2008-10-31 08:10:12 51°17.548 2°52.091 6.1 358 5.2 100380 86
2008-10-31 08:10:18 51°17.563 2°52.074 6.7 358 5.2 100380 86
2008-10-31 08:10:23 51°17.577 2°52.06 6.5 360 5.2 100380 85
2008-10-31 08:10:28 51°17.59 2°52.046 5.8 360 5.2 100380 85
2008-10-31 08:10:32 51°17.601 2°52.035 6.3 359 5.2 100390 86
2008-10-31 08:10:38 51°17.617 2°52.018 5.2 358 5.2 100390 86
2008-10-31 08:10:43 51°17.63 2°52.005 5.9 358 5.2 100390 86
2008-10-31 08:10:48 51°17.644 2°51.992 5.7 360 5.2 100390 86
2008-10-31 08:10:52 51°17.655 2°51.981 5.5 358 5.2 100380 85
2008-10-31 08:10:58 51°17.671 2°51.966 4.6 355 5.2 100380 85
2008-10-31 08:11:03 51°17.685 2°51.954 5.9 352 5.2 100380 85
2008-10-31 08:11:08 51°17.699 2°51.942 5.8 355 5.2 100380 85
2008-10-31 08:11:13 51°17.712 2°51.929 6.6 356 5.2 100380 86
2008-10-31 08:11:18 51°17.726 2°51.916 6.1 1 5.2 100380 86
2008-10-31 08:11:23 51°17.74 2°51.903 6.2 359 5.2 100390 85
2008-10-31 08:11:28 51°17.753 2°51.89 7.3 7 5.2 100390 85
2008-10-31 08:11:32 51°17.764 2°51.879 6.7 6 5.2 100380 85
2008-10-31 08:11:38 51°17.78 2°51.862 6.1 13 5.2 100380 85
2008-10-31 08:11:43 51°17.793 2°51.848 7 10 5.3 100390 86
2008-10-31 08:11:48 51°17.807 2°51.834 6.1 8 5.3 100390 86
2008-10-31 08:11:52 51°17.817 2°51.823 5.6 4 5.3 100380 87
2008-10-31 08:11:58 51°17.833 2°51.807 6.2 7 5.3 100380 87
2008-10-31 08:12:03 51°17.846 2°51.792 5.6 6 5.3 100380 87
2008-10-31 08:12:08 51°17.86 2°51.779 5.3 7 5.3 100380 87
2008-10-31 08:12:12 51°17.871 2°51.767 5.8 2 5.4 100380 87
2008-10-31 08:12:18 51°17.887 2°51.751 5.6 2 5.4 100380 87
2008-10-31 08:12:23 51°17.901 2°51.737 6.2 2 5.4 100380 86
2008-10-31 08:12:28 51°17.914 2°51.723 5.7 3 5.4 100380 86
2008-10-31 08:12:32 51°17.925 2°51.712 6.5 3 5.4 100390 87
2008-10-31 08:12:38 51°17.941 2°51.695 5.6 3 5.4 100390 87
2008-10-31 08:12:43 51°17.954 2°51.681 5.2 4 5.3 100380 86
2008-10-31 08:12:48 51°17.968 2°51.667 4.7 4 5.3 100380 86
2008-10-31 08:12:52 51°17.978 2°51.656 4.7 3 5.3 100380 87
2008-10-31 08:12:58 51°17.995 2°51.639 5 4 5.3 100380 87
2008-10-31 08:13:03 51°18.008 2°51.626 5.4 -999 5.3 100380 85
2008-10-31 08:13:08 51°18.022 2°51.612 5.4 2 5.3 100380 85
2008-10-31 08:13:12 51°18.033 2°51.6 5.9 5 5.3 100380 86
2008-10-31 08:13:18 51°18.049 2°51.583 5.9 6 5.3 100380 86
2008-10-31 08:13:23 51°18.063 2°51.57 6 7 5.3 100380 85
2008-10-31 08:13:28 51°18.076 2°51.556 8.6 358 5.3 100380 85
2008-10-31 08:13:32 51°18.087 2°51.545 7.6 360 5.3 100380 87
2008-10-31 08:13:38 51°18.103 2°51.528 8.1 -999 5.3 100380 87
2008-10-31 08:13:43 51°18.117 2°51.514 7.1 360 5.3 100380 86
2008-10-31 08:13:48 51°18.13 2°51.5 6.8 359 5.3 100380 86
2008-10-31 08:13:52 51°18.141 2°51.489 7.4 2 5.3 100380 87
2008-10-31 08:13:58 51°18.157 2°51.472 6.5 -999 5.3 100380 87
2008-10-31 08:14:03 51°18.171 2°51.458 7.5 358 5.3 100370 87
2008-10-31 08:14:08 51°18.184 2°51.444 7.4 358 5.3 100370 87
2008-10-31 08:14:12 51°18.195 2°51.433 7.7 1 5.3 100380 87
2008-10-31 08:14:18 51°18.212 2°51.417 7.9 1 5.3 100380 87
2008-10-31 08:14:23 51°18.225 2°51.402 7.1 -999 5.3 100380 86
2008-10-31 08:14:28 51°18.239 2°51.387 7.1 2 5.3 100380 86
2008-10-31 08:14:32 51°18.25 2°51.376 6 2 5.3 100380 85
2008-10-31 08:14:38 51°18.266 2°51.359 6.4 2 5.3 100380 85
2008-10-31 08:14:43 51°18.28 2°51.346 6.2 360 5.3 100380 86
2008-10-31 08:14:48 51°18.294 2°51.332 6.7 1 5.3 100380 86
2008-10-31 08:14:52 51°18.305 2°51.32 9 359 5.3 100380 85
2008-10-31 08:14:58 51°18.321 2°51.303 8.9 359 5.3 100380 85
2008-10-31 08:15:03 51°18.335 2°51.289 9 357 5.3 100380 86
2008-10-31 08:15:08 51°18.349 2°51.274 9.1 359 5.3 100380 86
2008-10-31 08:15:12 51°18.36 2°51.263 9 359 5.3 100380 87
2008-10-31 08:15:18 51°18.376 2°51.245 9.6 359 5.3 100380 87
2008-10-31 08:15:23 51°18.389 2°51.23 8.1 359 5.3 100380 86
2008-10-31 08:15:28 51°18.403 2°51.216 7.8 359 5.3 100380 86
2008-10-31 08:15:32 51°18.414 2°51.205 8.3 359 5.3 100380 86
2008-10-31 08:15:38 51°18.43 2°51.187 8.7 358 5.3 100380 86
2008-10-31 08:15:43 51°18.444 2°51.173 10.7 358 5.3 100380 86
2008-10-31 08:15:48 51°18.457 2°51.158 10.4 357 5.3 100380 86
2008-10-31 08:15:52 51°18.468 2°51.146 10.8 359 5.4 100380 86
2008-10-31 08:15:58 51°18.485 2°51.129 9.4 359 5.4 100380 86
2008-10-31 08:16:03 51°18.498 2°51.115 9.1 359 5.4 100380 85
2008-10-31 08:16:08 51°18.512 2°51.1 9.7 359 5.4 100380 85
2008-10-31 08:16:12 51°18.523 2°51.089 9.7 1 5.4 100370 85
2008-10-31 08:16:18 51°18.539 2°51.071 9.3 360 5.4 100370 85
2008-10-31 08:16:23 51°18.552 2°51.057 8.8 359 5.4 100370 85
2008-10-31 08:16:28 51°18.566 2°51.042 8.6 353 5.4 100370 85
2008-10-31 08:16:32 51°18.576 2°51.03 9 353 5.4 100370 84
2008-10-31 08:16:38 51°18.593 2°51.013 8.3 353 5.4 100370 84
2008-10-31 08:16:43 51°18.606 2°50.998 8 353 5.4 100370 85
2008-10-31 08:16:48 51°18.62 2°50.984 8.7 357 5.4 100370 85
2008-10-31 08:16:52 51°18.631 2°50.973 9.2 351 5.5 100370 84
2008-10-31 08:16:58 51°18.647 2°50.955 8.8 354 5.5 100370 84
2008-10-31 08:17:03 51°18.661 2°50.941 10.3 355 5.5 100370 83
2008-10-31 08:17:08 51°18.675 2°50.927 9.9 354 5.5 100370 83
2008-10-31 08:17:12 51°18.686 2°50.916 9.8 355 5.5 100380 83
2008-10-31 08:17:18 51°18.702 2°50.899 8.7 355 5.5 100380 83
2008-10-31 08:17:23 51°18.715 2°50.884 8 356 5.5 100380 83
2008-10-31 08:17:28 51°18.729 2°50.869 8.4 357 5.5 100380 83
2008-10-31 08:17:32 51°18.74 2°50.858 8.4 355 5.5 100370 83
2008-10-31 08:17:38 51°18.756 2°50.841 8.1 359 5.5 100370 83
2008-10-31 08:17:43 51°18.77 2°50.826 7.3 357 5.5 100380 83
2008-10-31 08:17:48 51°18.784 2°50.812 8.6 356 5.5 100380 83
2008-10-31 08:17:52 51°18.795 2°50.8 8.8 353 5.5 100380 82
2008-10-31 08:17:58 51°18.81 2°50.782 10.3 353 5.5 100380 82
2008-10-31 08:18:03 51°18.824 2°50.768 9.2 350 5.5 100380 83
2008-10-31 08:18:08 51°18.838 2°50.753 8.7 353 5.5 100380 83
2008-10-31 08:18:12 51°18.849 2°50.741 9.6 351 5.5 100370 84
2008-10-31 08:18:18 51°18.865 2°50.723 8.9 352 5.5 100370 84
2008-10-31 08:18:23 51°18.878 2°50.709 9.9 352 5.6 100370 84
2008-10-31 08:18:28 51°18.892 2°50.695 8.3 353 5.6 100370 84
2008-10-31 08:18:32 51°18.903 2°50.684 9 281 5.6 100370 84
2008-10-31 08:18:38 51°18.919 2°50.667 9.5 350 5.6 100370 84
2008-10-31 08:18:43 51°18.933 2°50.653 9.7 350 5.6 100380 84
2008-10-31 08:18:48 51°18.947 2°50.639 10.5 351 5.6 100380 84
2008-10-31 08:18:52 51°18.958 2°50.628 10.5 352 5.6 100370 83
2008-10-31 08:18:58 51°18.974 2°50.611 11.2 347 5.6 100370 83
2008-10-31 08:19:03 51°18.987 2°50.596 10.7 351 5.6 100370 83
2008-10-31 08:19:08 51°19.001 2°50.581 9.9 349 5.6 100370 83
2008-10-31 08:19:12 51°19.012 2°50.57 10.7 351 5.6 100370 82
2008-10-31 08:19:18 51°19.028 2°50.552 9.8 351 5.6 100370 82
2008-10-31 08:19:23 51°19.042 2°50.537 11.2 353 5.6 100370 82
2008-10-31 08:19:28 51°19.055 2°50.522 10.2 355 5.6 100370 82
2008-10-31 08:19:32 51°19.066 2°50.511 12.1 353 5.5 100370 82
2008-10-31 08:19:38 51°19.082 2°50.493 11 352 5.5 100370 82
2008-10-31 08:19:43 51°19.096 2°50.479 11.2 353 5.5 100370 83
2008-10-31 08:19:48 51°19.109 2°50.464 10 355 5.5 100370 83
2008-10-31 08:19:52 51°19.12 2°50.452 9.4 354 5.6 100370 83
2008-10-31 08:19:58 51°19.136 2°50.435 9.9 353 5.6 100370 83
2008-10-31 08:20:03 51°19.15 2°50.42 9.9 352 5.6 100370 83
2008-10-31 08:20:08 51°19.163 2°50.406 10.8 354 5.6 100370 83
2008-10-31 08:20:12 51°19.175 2°50.395 10.7 354 5.5 100370 82
2008-10-31 08:20:18 51°19.191 2°50.379 12.1 353 5.5 100370 82
2008-10-31 08:20:23 51°19.205 2°50.365 10.9 353 5.6 100380 83
2008-10-31 08:20:28 51°19.219 2°50.352 11.6 354 5.6 100380 83
2008-10-31 08:20:32 51°19.23 2°50.342 10.5 354 5.6 100360 82
2008-10-31 08:20:38 51°19.247 2°50.326 11.6 355 5.6 100360 82
2008-10-31 08:20:43 51°19.261 2°50.313 12.3 354 5.6 100370 83
2008-10-31 08:20:48 51°19.275 2°50.3 10.6 355 5.6 100370 83
2008-10-31 08:20:52 51°19.286 2°50.29 10.3 354 5.5 100360 81
2008-10-31 08:20:58 51°19.303 2°50.273 10.4 354 5.5 100360 81
2008-10-31 08:21:03 51°19.316 2°50.259 10.5 353 5.5 100360 82
2008-10-31 08:21:08 51°19.33 2°50.246 9.5 353 5.5 100360 82
2008-10-31 08:21:12 51°19.341 2°50.235 7.9 352 5.5 100370 81
2008-10-31 08:21:18 51°19.358 2°50.218 9.7 356 5.5 100370 81
2008-10-31 08:21:23 51°19.371 2°50.204 9 354 5.5 100360 82
2008-10-31 08:21:28 51°19.385 2°50.19 9.4 355 5.5 100360 82
2008-10-31 08:21:32 51°19.396 2°50.179 8.5 359 5.5 100370 80
2008-10-31 08:21:38 51°19.413 2°50.163 8.4 356 5.5 100370 80
2008-10-31 08:21:43 51°19.427 2°50.149 9.2 353 5.5 100390 81
2008-10-31 08:21:48 51°19.44 2°50.135 8.2 353 5.5 100390 81
2008-10-31 08:21:52 51°19.451 2°50.124 8.1 351 5.5 100380 80
2008-10-31 08:21:58 51°19.468 2°50.108 8.4 355 5.5 100380 80
2008-10-31 08:22:03 51°19.482 2°50.093 8.5 359 5.5 100380 82
2008-10-31 08:22:08 51°19.496 2°50.08 10.8 356 5.5 100380 82
2008-10-31 08:22:12 51°19.507 2°50.068 10 355 5.5 100380 82
2008-10-31 08:22:18 51°19.523 2°50.052 8.4 1 5.5 100380 82
2008-10-31 08:22:23 51°19.537 2°50.037 9.2 1 5.6 100380 83
2008-10-31 08:22:28 51°19.551 2°50.023 8.5 359 5.6 100380 83
2008-10-31 08:22:32 51°19.562 2°50.012 8.4 -999 5.6 100380 82
2008-10-31 08:22:38 51°19.579 2°49.994 9.3 359 5.6 100380 82
2008-10-31 08:22:43 51°19.593 2°49.979 8.7 2 5.6 100380 82
2008-10-31 08:22:48 51°19.606 2°49.965 9 360 5.6 100380 82
2008-10-31 08:22:52 51°19.618 2°49.954 9.2 358 5.6 100370 83
2008-10-31 08:22:58 51°19.634 2°49.937 8.6 358 5.6 100370 83
2008-10-31 08:23:03 51°19.648 2°49.922 8.6 358 5.6 100370 81
2008-10-31 08:23:08 51°19.662 2°49.909 8.2 358 5.6 100370 81
2008-10-31 08:23:12 51°19.672 2°49.897 8.2 356 5.6 100390 82
2008-10-31 08:23:18 51°19.689 2°49.88 9 357 5.6 100390 82
2008-10-31 08:23:23 51°19.703 2°49.866 8.2 357 5.6 100390 82
2008-10-31 08:23:28 51°19.717 2°49.853 7.2 355 5.6 100390 82
2008-10-31 08:23:32 51°19.728 2°49.842 7.6 357 5.6 100370 82
2008-10-31 08:23:38 51°19.746 2°49.827 7.5 357 5.6 100370 82
2008-10-31 08:23:43 51°19.76 2°49.814 7.2 357 5.6 100380 81
2008-10-31 08:23:48 51°19.774 2°49.801 7.2 357 5.6 100380 81
2008-10-31 08:23:52 51°19.785 2°49.791 9.1 356 5.5 100390 82
2008-10-31 08:23:58 51°19.803 2°49.775 9.2 357 5.5 100390 82
2008-10-31 08:24:03 51°19.817 2°49.762 7.7 358 5.5 100380 81
2008-10-31 08:24:08 51°19.831 2°49.748 7.6 358 5.5 100380 81
2008-10-31 08:24:12 51°19.843 2°49.738 6.3 360 5.5 100390 81
2008-10-31 08:24:18 51°19.86 2°49.722 7.1 356 5.5 100390 81
2008-10-31 08:24:23 51°19.874 2°49.708 7.8 356 5.5 100380 80
2008-10-31 08:24:28 51°19.888 2°49.695 7.2 358 5.5 100380 80
2008-10-31 08:24:32 51°19.899 2°49.684 7.2 358 5.6 100390 82
2008-10-31 08:24:38 51°19.916 2°49.666 7.6 3 5.6 100390 82
2008-10-31 08:24:43 51°19.93 2°49.652 7.4 2 5.6 100380 82
2008-10-31 08:24:48 51°19.944 2°49.637 8.9 357 5.6 100380 82
2008-10-31 08:24:52 51°19.955 2°49.626 9.1 1 5.6 100390 82
2008-10-31 08:24:58 51°19.971 2°49.607 8.2 3 5.6 100390 82
2008-10-31 08:25:03 51°19.985 2°49.593 7.9 3 5.6 100390 83
2008-10-31 08:25:08 51°19.999 2°49.577 8.6 5 5.6 100390 83
2008-10-31 08:25:12 51°20.01 2°49.565 7.6 5 5.7 100390 83
2008-10-31 08:25:18 51°20.026 2°49.546 7.9 5 5.7 100390 83
2008-10-31 08:25:23 51°20.04 2°49.531 7.3 6 5.7 100380 83
2008-10-31 08:25:28 51°20.053 2°49.515 7.5 4 5.7 100380 83
2008-10-31 08:25:32 51°20.064 2°49.502 7.8 3 5.7 100380 84
2008-10-31 08:25:38 51°20.08 2°49.483 9.7 358 5.7 100380 84
2008-10-31 08:25:43 51°20.094 2°49.467 8.5 2 5.7 100380 84
2008-10-31 08:25:48 51°20.107 2°49.451 8 353 5.7 100380 84
2008-10-31 08:25:52 51°20.118 2°49.438 7.7 350 5.7 100380 83
2008-10-31 08:25:58 51°20.134 2°49.419 9.3 353 5.7 100380 83
2008-10-31 08:26:03 51°20.148 2°49.403 9.6 355 5.7 100380 85
2008-10-31 08:26:08 51°20.162 2°49.388 8.4 353 5.7 100380 85
2008-10-31 08:26:12 51°20.173 2°49.376 8.4 353 5.8 100380 85
2008-10-31 08:26:18 51°20.189 2°49.357 11.2 355 5.8 100380 85
2008-10-31 08:26:23 51°20.203 2°49.341 9.3 354 5.8 100390 85
2008-10-31 08:26:28 51°20.216 2°49.326 12.1 353 5.8 100390 85
2008-10-31 08:26:32 51°20.227 2°49.314 11.5 355 5.8 100380 84
2008-10-31 08:26:38 51°20.244 2°49.296 11.6 354 5.8 100380 84
2008-10-31 08:26:43 51°20.258 2°49.281 12.1 354 5.8 100380 83
2008-10-31 08:26:48 51°20.271 2°49.266 9.4 354 5.8 100380 83
2008-10-31 08:26:52 51°20.282 2°49.254 10.2 354 5.8 100380 84
2008-10-31 08:26:58 51°20.299 2°49.235 11 353 5.8 100380 84
2008-10-31 08:27:03 51°20.312 2°49.219 9.2 352 5.7 100370 83
2008-10-31 08:27:08 51°20.326 2°49.203 8.7 352 5.7 100370 83
2008-10-31 08:27:12 51°20.337 2°49.191 10.1 354 5.7 100370 82
2008-10-31 08:27:18 51°20.353 2°49.171 9.1 353 5.7 100370 82
2008-10-31 08:27:23 51°20.366 2°49.155 10.2 353 5.7 100380 83
2008-10-31 08:27:28 51°20.38 2°49.139 10.1 352 5.7 100380 83
2008-10-31 08:27:32 51°20.391 2°49.126 9.4 356 5.7 100370 82
2008-10-31 08:27:38 51°20.407 2°49.107 10.7 354 5.7 100370 82
2008-10-31 08:27:43 51°20.421 2°49.091 9.5 359 5.7 100370 83
2008-10-31 08:27:48 51°20.435 2°49.075 8.9 357 5.7 100370 83
2008-10-31 08:27:52 51°20.445 2°49.062 9.8 355 5.7 100370 83
2008-10-31 08:27:58 51°20.462 2°49.043 10 358 5.7 100370 83
2008-10-31 08:28:03 51°20.476 2°49.028 9.4 356 5.7 100380 84
2008-10-31 08:28:08 51°20.49 2°49.012 8.2 353 5.7 100380 84
2008-10-31 08:28:12 51°20.501 2°48.999 8 356 5.7 100370 83
2008-10-31 08:28:18 51°20.517 2°48.981 9.3 353 5.7 100370 83
2008-10-31 08:28:23 51°20.531 2°48.965 8.6 357 5.7 100370 84
2008-10-31 08:28:28 51°20.545 2°48.949 10.4 354 5.7 100370 84
2008-10-31 08:28:32 51°20.556 2°48.936 8.5 355 5.7 100380 83
2008-10-31 08:28:38 51°20.573 2°48.917 8.7 355 5.7 100380 83
2008-10-31 08:28:43 51°20.587 2°48.901 10.3 356 5.7 100390 84
2008-10-31 08:28:48 51°20.6 2°48.886 10.7 350 5.7 100390 84
2008-10-31 08:28:52 51°20.611 2°48.873 10.7 354 5.7 100380 85
2008-10-31 08:28:58 51°20.628 2°48.854 11.1 356 5.7 100380 85
2008-10-31 08:29:03 51°20.641 2°48.838 11.1 358 5.8 100390 84
2008-10-31 08:29:08 51°20.655 2°48.823 9.8 355 5.8 100390 84
2008-10-31 08:29:12 51°20.666 2°48.81 11.4 356 5.7 100390 84
2008-10-31 08:29:18 51°20.682 2°48.791 10.3 355 5.7 100390 84
2008-10-31 08:29:23 51°20.696 2°48.775 9 354 5.7 100390 83
2008-10-31 08:29:28 51°20.71 2°48.759 8.5 355 5.7 100390 83
2008-10-31 08:29:32 51°20.721 2°48.747 9.3 355 5.7 100370 83
2008-10-31 08:29:38 51°20.738 2°48.728 8.8 355 5.7 100370 83
2008-10-31 08:29:43 51°20.751 2°48.712 9.8 354 5.7 100380 83
2008-10-31 08:29:48 51°20.765 2°48.696 9 351 5.7 100380 83
2008-10-31 08:29:52 51°20.776 2°48.684 10.5 354 5.7 100380 83
2008-10-31 08:29:58 51°20.792 2°48.666 8.9 353 5.7 100380 83
2008-10-31 08:30:03 51°20.806 2°48.65 9.4 356 5.7 100390 82
2008-10-31 08:30:08 51°20.82 2°48.634 8.3 356 5.7 100390 82
2008-10-31 08:30:12 51°20.831 2°48.622 9.3 355 5.7 100370 83
2008-10-31 08:30:18 51°20.847 2°48.603 8.6 355 5.7 100370 83
2008-10-31 08:30:23 51°20.861 2°48.587 8.4 356 5.7 100390 84
2008-10-31 08:30:28 51°20.875 2°48.571 8.8 357 5.7 100390 84
2008-10-31 08:30:32 51°20.886 2°48.558 8.5 355 5.7 100390 82
2008-10-31 08:30:38 51°20.902 2°48.539 9.1 354 5.7 100390 82
2008-10-31 08:30:43 51°20.916 2°48.524 9.1 355 5.7 100380 83
2008-10-31 08:30:48 51°20.931 2°48.509 7.2 356 5.7 100380 83
2008-10-31 08:30:52 51°20.942 2°48.498 9.1 354 5.6 100390 84
2008-10-31 08:30:58 51°20.959 2°48.48 8.4 357 5.6 100390 84
2008-10-31 08:31:03 51°20.973 2°48.465 10.2 354 5.6 100400 84
2008-10-31 08:31:08 51°20.987 2°48.449 8.4 352 5.6 100400 84
2008-10-31 08:31:12 51°20.998 2°48.437 10.8 351 5.6 100400 84
2008-10-31 08:31:18 51°21.015 2°48.419 11.2 353 5.6 100400 84
2008-10-31 08:31:23 51°21.029 2°48.403 10.8 355 5.7 100390 84
2008-10-31 08:31:28 51°21.043 2°48.387 9 355 5.7 100390 84
2008-10-31 08:31:32 51°21.054 2°48.375 9.6 356 5.7 100390 85
2008-10-31 08:31:38 51°21.07 2°48.356 10 355 5.7 100390 85
2008-10-31 08:31:43 51°21.084 2°48.34 9 357 5.7 100380 83
2008-10-31 08:31:48 51°21.098 2°48.325 10.3 358 5.7 100380 83
2008-10-31 08:31:53 51°21.112 2°48.31 11 358 5.6 100390 83
2008-10-31 08:31:58 51°21.126 2°48.295 11.4 358 5.6 100390 83
2008-10-31 08:32:03 51°21.14 2°48.279 10.2 359 5.6 100390 83
2008-10-31 08:32:08 51°21.154 2°48.264 11.3 358 5.6 100390 83
2008-10-31 08:32:13 51°21.167 2°48.247 11.3 360 5.7 100390 84
2008-10-31 08:32:18 51°21.181 2°48.233 9.1 1 5.7 100390 84
2008-10-31 08:32:23 51°21.195 2°48.217 8.9 360 5.7 100380 84
2008-10-31 08:32:28 51°21.209 2°48.203 8.5 357 5.7 100380 84
2008-10-31 08:32:32 51°21.22 2°48.19 9.2 355 5.7 100380 83
2008-10-31 08:32:38 51°21.237 2°48.173 10.1 355 5.7 100380 83
2008-10-31 08:32:43 51°21.25 2°48.157 9.6 356 5.6 100390 84
2008-10-31 08:32:48 51°21.264 2°48.143 9.5 357 5.6 100390 84
2008-10-31 08:32:52 51°21.276 2°48.13 11.1 355 5.7 100390 83
2008-10-31 08:32:58 51°21.292 2°48.112 9.3 353 5.7 100390 83
2008-10-31 08:33:03 51°21.306 2°48.097 8.9 355 5.7 100390 83
2008-10-31 08:33:08 51°21.32 2°48.082 9.8 354 5.7 100390 83
2008-10-31 08:33:12 51°21.331 2°48.069 8.2 355 5.8 100380 84
2008-10-31 08:33:18 51°21.348 2°48.051 9.4 352 5.8 100380 84
2008-10-31 08:33:23 51°21.362 2°48.035 10.1 359 5.7 100390 83
2008-10-31 08:33:28 51°21.377 2°48.021 8 356 5.7 100390 83
2008-10-31 08:33:32 51°21.388 2°48.008 8.1 358 5.7 100390 83
2008-10-31 08:33:38 51°21.405 2°47.99 7.9 357 5.7 100390 83
2008-10-31 08:33:43 51°21.418 2°47.975 8 357 5.7 100390 83
2008-10-31 08:33:48 51°21.432 2°47.96 9.4 360 5.7 100390 83
2008-10-31 08:33:53 51°21.446 2°47.945 8.1 1 5.7 100390 82
2008-10-31 08:33:58 51°21.46 2°47.93 8.2 354 5.7 100390 82
2008-10-31 08:34:03 51°21.474 2°47.914 8.3 357 5.7 100400 83
2008-10-31 08:34:08 51°21.488 2°47.899 10.5 355 5.7 100400 83
2008-10-31 08:34:13 51°21.502 2°47.883 10.3 355 5.7 100380 82
2008-10-31 08:34:18 51°21.516 2°47.868 10.4 355 5.7 100380 82
2008-10-31 08:34:23 51°21.53 2°47.853 10 354 5.7 100390 83
2008-10-31 08:34:28 51°21.544 2°47.837 10.2 354 5.7 100390 83
2008-10-31 08:34:32 51°21.555 2°47.825 10 356 5.7 100390 83
2008-10-31 08:34:38 51°21.572 2°47.806 8.2 358 5.7 100390 83
2008-10-31 08:34:43 51°21.586 2°47.791 8.2 357 5.7 100390 83
2008-10-31 08:34:48 51°21.6 2°47.776 7 357 5.7 100390 83
2008-10-31 08:34:52 51°21.612 2°47.764 7.9 357 5.7 100390 83
2008-10-31 08:34:58 51°21.628 2°47.746 9.2 352 5.7 100390 83
2008-10-31 08:35:03 51°21.642 2°47.732 9.9 352 5.7 100380 83
2008-10-31 08:35:08 51°21.656 2°47.717 8.8 356 5.7 100380 83
2008-10-31 08:35:12 51°21.668 2°47.706 9.2 355 5.7 100390 82
2008-10-31 08:35:18 51°21.684 2°47.688 9.4 356 5.7 100390 82
2008-10-31 08:35:23 51°21.699 2°47.674 9.4 357 5.7 100390 84
2008-10-31 08:35:28 51°21.713 2°47.661 10.2 356 5.7 100390 84
2008-10-31 08:35:32 51°21.725 2°47.649 11 356 5.7 100390 84
2008-10-31 08:35:38 51°21.742 2°47.633 9.7 355 5.7 100390 84
2008-10-31 08:35:43 51°21.756 2°47.619 9.5 355 5.7 100400 83
2008-10-31 08:35:48 51°21.77 2°47.605 9.1 353 5.7 100400 83
2008-10-31 08:35:52 51°21.782 2°47.594 8.7 353 5.7 100390 82
2008-10-31 08:35:58 51°21.799 2°47.577 9.6 352 5.7 100390 82
2008-10-31 08:36:03 51°21.813 2°47.564 8.3 354 5.7 100380 83
2008-10-31 08:36:08 51°21.828 2°47.551 9.6 353 5.7 100380 83
2008-10-31 08:36:12 51°21.839 2°47.541 8.8 352 5.7 100390 84
2008-10-31 08:36:18 51°21.856 2°47.526 9.5 353 5.7 100390 84
2008-10-31 08:36:23 51°21.871 2°47.514 9.6 351 5.6 100390 82
2008-10-31 08:36:28 51°21.886 2°47.503 8.6 354 5.6 100390 82
2008-10-31 08:36:32 51°21.897 2°47.493 9 354 5.6 100390 83
2008-10-31 08:36:38 51°21.915 2°47.48 8.8 352 5.6 100390 83
2008-10-31 08:36:43 51°21.93 2°47.468 9.1 354 5.6 100390 84
2008-10-31 08:36:48 51°21.945 2°47.457 8.9 355 5.6 100390 84
2008-10-31 08:36:52 51°21.956 2°47.448 10.4 356 5.7 100390 84
2008-10-31 08:36:58 51°21.974 2°47.435 10.7 352 5.7 100390 84
2008-10-31 08:37:03 51°21.989 2°47.424 10 352 5.6 100400 84
2008-10-31 08:37:08 51°22.003 2°47.413 8.5 354 5.6 100400 84
2008-10-31 08:37:12 51°22.015 2°47.404 8.9 353 5.7 100400 83
2008-10-31 08:37:18 51°22.032 2°47.39 9 355 5.7 100400 83
2008-10-31 08:37:23 51°22.047 2°47.379 9.9 351 5.7 100390 85
2008-10-31 08:37:28 51°22.062 2°47.367 11 352 5.7 100390 85
2008-10-31 08:37:32 51°22.074 2°47.359 10.8 353 5.7 100390 84
2008-10-31 08:37:38 51°22.091 2°47.345 11.8 354 5.7 100390 84
2008-10-31 08:37:43 51°22.106 2°47.335 9.5 352 5.7 100380 84
2008-10-31 08:37:48 51°22.121 2°47.324 10.7 350 5.7 100380 84
2008-10-31 08:37:52 51°22.133 2°47.315 10.8 353 5.7 100400 83
2008-10-31 08:37:58 51°22.15 2°47.303 9.9 350 5.7 100400 83
2008-10-31 08:38:03 51°22.165 2°47.292 9.6 352 5.7 100390 85
2008-10-31 08:38:08 51°22.18 2°47.281 11.2 352 5.7 100390 85
2008-10-31 08:38:12 51°22.191 2°47.272 10.7 352 5.7 100390 84
2008-10-31 08:38:18 51°22.209 2°47.261 11.2 354 5.7 100390 84
2008-10-31 08:38:23 51°22.224 2°47.25 10.6 355 5.8 100400 85
2008-10-31 08:38:28 51°22.238 2°47.239 10 357 5.8 100400 85
2008-10-31 08:38:32 51°22.25 2°47.231 10.3 358 5.7 100380 84
2008-10-31 08:38:38 51°22.267 2°47.218 9.2 359 5.7 100380 84
2008-10-31 08:38:43 51°22.281 2°47.207 9.6 359 5.8 100390 84
2008-10-31 08:38:48 51°22.296 2°47.196 9.2 356 5.8 100390 84
2008-10-31 08:38:52 51°22.307 2°47.186 10.6 356 5.8 100380 84
2008-10-31 08:38:58 51°22.324 2°47.173 9.9 356 5.8 100380 84
2008-10-31 08:39:03 51°22.338 2°47.162 10.5 357 5.8 100380 84
2008-10-31 08:39:08 51°22.353 2°47.151 10.9 358 5.8 100380 84
2008-10-31 08:39:12 51°22.364 2°47.142 8.9 355 5.8 100390 83
2008-10-31 08:39:18 51°22.381 2°47.13 10.4 357 5.8 100390 83
2008-10-31 08:39:23 51°22.395 2°47.119 10 357 5.8 100390 83
2008-10-31 08:39:28 51°22.41 2°47.109 8.5 356 5.8 100390 83
2008-10-31 08:39:32 51°22.422 2°47.1 8.1 358 5.7 100380 83
2008-10-31 08:39:38 51°22.439 2°47.088 7.8 358 5.7 100380 83
2008-10-31 08:39:43 51°22.453 2°47.077 8.1 -999 5.7 100400 82
2008-10-31 08:39:48 51°22.468 2°47.067 10.3 359 5.7 100400 82
2008-10-31 08:39:52 51°22.48 2°47.059 7.8 357 5.7 100400 83
2008-10-31 08:39:58 51°22.497 2°47.046 10 359 5.7 100400 83
2008-10-31 08:40:03 51°22.511 2°47.034 9.5 2 5.7 100400 82
2008-10-31 08:40:08 51°22.526 2°47.023 9.6 -999 5.7 100400 82
2008-10-31 08:40:12 51°22.537 2°47.015 10.3 1 5.8 100400 85
2008-10-31 08:40:18 51°22.555 2°47.002 10.5 1 5.8 100400 85
2008-10-31 08:40:23 51°22.569 2°46.991 9.4 357 5.8 100400 85
2008-10-31 08:40:28 51°22.583 2°46.98 9.5 354 5.8 100400 85
2008-10-31 08:40:32 51°22.595 2°46.972 10.6 354 5.8 100400 84
2008-10-31 08:40:38 51°22.612 2°46.959 9.3 356 5.8 100400 84
2008-10-31 08:40:43 51°22.626 2°46.948 11.8 356 5.8 100390 84
2008-10-31 08:40:48 51°22.641 2°46.937 11.5 353 5.8 100390 84
2008-10-31 08:40:52 51°22.652 2°46.928 10.5 357 5.8 100410 84
2008-10-31 08:40:58 51°22.669 2°46.914 11.2 356 5.8 100410 84
2008-10-31 08:41:03 51°22.683 2°46.903 9.8 357 5.8 100390 83
2008-10-31 08:41:08 51°22.698 2°46.892 10.2 359 5.8 100390 83
2008-10-31 08:41:12 51°22.709 2°46.883 11.6 355 5.8 100380 85
2008-10-31 08:41:18 51°22.726 2°46.869 12 354 5.8 100380 85
2008-10-31 08:41:23 51°22.741 2°46.859 11.9 354 5.8 100380 85
2008-10-31 08:41:28 51°22.755 2°46.848 10 357 5.8 100380 85
2008-10-31 08:41:32 51°22.767 2°46.84 12.3 353 5.9 100400 84
2008-10-31 08:41:38 51°22.784 2°46.827 10.2 353 5.9 100400 84
2008-10-31 08:41:43 51°22.798 2°46.816 11.7 353 5.9 100400 85
2008-10-31 08:41:48 51°22.812 2°46.804 11.3 354 5.9 100400 85
2008-10-31 08:41:52 51°22.824 2°46.796 9.6 356 5.9 100400 84
2008-10-31 08:41:58 51°22.841 2°46.782 12 356 5.9 100400 84
2008-10-31 08:42:03 51°22.855 2°46.771 10.6 356 5.8 100390 84
2008-10-31 08:42:08 51°22.87 2°46.76 11 359 5.8 100390 84
2008-10-31 08:42:12 51°22.881 2°46.751 12.2 359 5.8 100380 84
2008-10-31 08:42:18 51°22.898 2°46.737 10 359 5.8 100380 84
2008-10-31 08:42:23 51°22.913 2°46.727 11.7 358 5.8 100400 84
2008-10-31 08:42:28 51°22.927 2°46.715 9.4 357 5.8 100400 84
2008-10-31 08:42:32 51°22.939 2°46.707 9.4 357 5.8 100390 83
2008-10-31 08:42:38 51°22.956 2°46.694 9.5 356 5.8 100390 83
2008-10-31 08:42:43 51°22.971 2°46.683 11.8 2 5.8 100390 84
2008-10-31 08:42:48 51°22.986 2°46.672 9.4 2 5.8 100390 84
2008-10-31 08:42:52 51°22.997 2°46.663 8.8 2 5.8 100390 83
2008-10-31 08:42:58 51°23.015 2°46.65 10.4 1 5.8 100390 83
2008-10-31 08:43:03 51°23.029 2°46.639 8.5 -999 5.8 100390 84
2008-10-31 08:43:08 51°23.044 2°46.628 9.2 360 5.8 100390 84
2008-10-31 08:43:12 51°23.055 2°46.619 8.7 359 5.9 100400 85
2008-10-31 08:43:18 51°23.073 2°46.606 8.8 358 5.9 100400 85
2008-10-31 08:43:23 51°23.087 2°46.595 10.8 359 5.8 100390 85
2008-10-31 08:43:28 51°23.102 2°46.585 9.9 359 5.8 100390 85
2008-10-31 08:43:32 51°23.114 2°46.577 10.7 1 5.8 100410 84
2008-10-31 08:43:38 51°23.131 2°46.564 10.7 360 5.8 100410 84
2008-10-31 08:43:43 51°23.146 2°46.553 10.9 357 5.9 100400 85
2008-10-31 08:43:48 51°23.16 2°46.543 12.2 357 5.9 100400 85
2008-10-31 08:43:53 51°23.175 2°46.532 9.1 2 5.8 100390 84
2008-10-31 08:43:58 51°23.189 2°46.521 10.9 -999 5.8 100390 84
2008-10-31 08:44:03 51°23.204 2°46.51 12.3 358 5.8 100390 84
2008-10-31 08:44:08 51°23.218 2°46.498 10.2 356 5.8 100390 84
2008-10-31 08:44:12 51°23.23 2°46.49 9.6 358 5.8 100400 84
2008-10-31 08:44:18 51°23.247 2°46.476 9.2 358 5.8 100400 84
2008-10-31 08:44:23 51°23.261 2°46.465 10.9 358 5.8 100410 83
2008-10-31 08:44:28 51°23.276 2°46.453 9.6 358 5.8 100410 83
2008-10-31 08:44:32 51°23.287 2°46.445 9.4 357 5.8 100410 84
2008-10-31 08:44:38 51°23.305 2°46.431 10 355 5.8 100410 84
2008-10-31 08:44:43 51°23.319 2°46.42 11 356 5.8 100400 83
2008-10-31 08:44:48 51°23.333 2°46.408 12 355 5.8 100400 83
2008-10-31 08:44:53 51°23.347 2°46.397 11.1 356 5.8 100400 82
2008-10-31 08:44:58 51°23.361 2°46.385 11.7 356 5.8 100400 82
2008-10-31 08:45:03 51°23.376 2°46.373 10.8 357 5.8 100400 83
2008-10-31 08:45:08 51°23.39 2°46.362 11.8 358 5.8 100400 83
2008-10-31 08:45:12 51°23.402 2°46.353 12.6 355 5.9 100400 82
2008-10-31 08:45:18 51°23.419 2°46.34 12.4 359 5.9 100400 82
2008-10-31 08:45:23 51°23.433 2°46.329 12.9 358 5.9 100400 83
2008-10-31 08:45:28 51°23.448 2°46.318 12.5 359 5.9 100400 83
2008-10-31 08:45:32 51°23.46 2°46.31 10.6 358 5.8 100390 83
2008-10-31 08:45:38 51°23.477 2°46.297 10.3 356 5.8 100390 83
2008-10-31 08:45:43 51°23.491 2°46.287 10.1 356 5.9 100400 82
2008-10-31 08:45:48 51°23.506 2°46.277 11.4 355 5.9 100400 82
2008-10-31 08:45:52 51°23.518 2°46.269 10 357 5.9 100390 82
2008-10-31 08:45:58 51°23.535 2°46.256 9.5 358 5.9 100390 82
2008-10-31 08:46:03 51°23.55 2°46.245 8.3 356 5.9 100400 82
2008-10-31 08:46:08 51°23.564 2°46.234 8.2 356 5.9 100400 82
2008-10-31 08:46:12 51°23.575 2°46.225 9.2 354 5.8 100400 82
2008-10-31 08:46:18 51°23.592 2°46.212 9.7 357 5.8 100400 82
2008-10-31 08:46:23 51°23.607 2°46.201 11.2 357 5.8 100400 81
2008-10-31 08:46:28 51°23.621 2°46.19 8.7 357 5.8 100400 81
2008-10-31 08:46:32 51°23.633 2°46.182 9.7 359 5.8 100410 81
2008-10-31 08:46:38 51°23.65 2°46.167 10.2 358 5.8 100410 81
2008-10-31 08:46:43 51°23.664 2°46.157 10.1 356 5.8 100420 81
2008-10-31 08:46:48 51°23.678 2°46.145 10.2 2 5.8 100420 81
2008-10-31 08:46:52 51°23.69 2°46.136 12.4 1 5.8 100410 82
2008-10-31 08:46:58 51°23.707 2°46.122 10.3 1 5.8 100410 82
2008-10-31 08:47:03 51°23.722 2°46.111 11.3 1 5.8 100410 81
2008-10-31 08:47:08 51°23.736 2°46.099 9.7 360 5.8 100410 81
2008-10-31 08:47:12 51°23.748 2°46.09 9.6 -999 5.8 100400 81
2008-10-31 08:47:18 51°23.765 2°46.076 10.2 -999 5.8 100400 81
2008-10-31 08:47:23 51°23.779 2°46.064 9.3 1 5.9 100400 83
2008-10-31 08:47:28 51°23.794 2°46.054 9.1 2 5.9 100400 83
2008-10-31 08:47:32 51°23.805 2°46.045 8.6 360 5.9 100400 83
2008-10-31 08:47:38 51°23.823 2°46.032 9.9 1 5.9 100400 83
2008-10-31 08:47:43 51°23.837 2°46.02 8.5 3 5.8 100400 82
2008-10-31 08:47:48 51°23.851 2°46.008 9.7 358 5.8 100400 82
2008-10-31 08:47:52 51°23.863 2°45.998 12 359 5.8 100410 82
2008-10-31 08:47:58 51°23.88 2°45.984 9.8 359 5.8 100410 82
2008-10-31 08:48:03 51°23.895 2°45.971 8.4 2 5.8 100410 82
2008-10-31 08:48:08 51°23.909 2°45.959 10.9 2 5.8 100410 82
2008-10-31 08:48:12 51°23.92 2°45.95 11.8 360 5.9 100410 84
2008-10-31 08:48:18 51°23.938 2°45.935 10.4 2 5.9 100410 84
2008-10-31 08:48:23 51°23.952 2°45.925 10.8 359 5.9 100400 84
2008-10-31 08:48:28 51°23.967 2°45.916 13.3 356 5.9 100400 84
2008-10-31 08:48:32 51°23.978 2°45.91 10.9 356 5.9 100410 83
2008-10-31 08:48:38 51°23.996 2°45.903 10.9 358 5.9 100410 83
2008-10-31 08:48:43 51°24.011 2°45.897 13.7 357 5.9 100400 83
2008-10-31 08:48:48 51°24.026 2°45.893 11.7 354 5.9 100400 83
2008-10-31 08:48:52 51°24.038 2°45.891 12.7 354 5.9 100400 84
2008-10-31 08:48:58 51°24.056 2°45.89 13 354 5.9 100400 84
2008-10-31 08:49:03 51°24.07 2°45.89 11.6 353 5.9 100400 84
2008-10-31 08:49:08 51°24.084 2°45.894 13.4 351 5.9 100400 84
2008-10-31 08:49:12 51°24.096 2°45.896 13.6 349 5.9 100400 82
2008-10-31 08:49:18 51°24.112 2°45.902 14.6 347 5.9 100400 82
2008-10-31 08:49:23 51°24.126 2°45.907 12.4 348 5.9 100390 82
2008-10-31 08:49:28 51°24.139 2°45.914 14.9 346 5.9 100390 82
2008-10-31 08:49:32 51°24.15 2°45.919 15 280 5.9 100410 81
2008-10-31 08:49:38 51°24.166 2°45.928 14.7 343 5.9 100410 81
2008-10-31 08:49:43 51°24.179 2°45.936 12.3 344 5.9 100390 82
2008-10-31 08:49:48 51°24.192 2°45.944 12.7 344 5.9 100390 82
2008-10-31 08:49:52 51°24.202 2°45.951 14.1 281 5.9 100390 82
2008-10-31 08:49:58 51°24.218 2°45.961 13 340 5.9 100390 82
2008-10-31 08:50:03 51°24.229 2°45.973 13.2 281 5.9 100400 82
2008-10-31 08:50:08 51°24.242 2°45.984 11.6 340 5.9 100400 82
2008-10-31 08:50:12 51°24.251 2°45.994 12.6 285 5.9 100400 82
2008-10-31 08:50:18 51°24.265 2°46.008 13.2 341 5.9 100400 82
2008-10-31 08:50:23 51°24.275 2°46.022 11.7 342 5.9 100390 82
2008-10-31 08:50:28 51°24.287 2°46.035 12.4 340 5.9 100390 82
2008-10-31 08:50:32 51°24.295 2°46.045 12.9 281 5.9 100410 82
2008-10-31 08:50:38 51°24.308 2°46.062 12 338 5.9 100410 82
2008-10-31 08:50:43 51°24.319 2°46.076 12.3 339 5.9 100400 82
2008-10-31 08:50:48 51°24.329 2°46.09 13.2 338 5.9 100400 82
2008-10-31 08:50:52 51°24.338 2°46.101 13.2 287 5.9 100400 82
2008-10-31 08:50:58 51°24.351 2°46.118 13.1 338 5.9 100400 82
2008-10-31 08:51:03 51°24.361 2°46.132 11 281 5.9 100410 82
2008-10-31 08:51:08 51°24.372 2°46.146 11.4 340 5.9 100410 82
2008-10-31 08:51:12 51°24.381 2°46.157 12.1 339 5.9 100400 82
2008-10-31 08:51:18 51°24.393 2°46.174 11.7 339 5.9 100400 82
2008-10-31 08:51:23 51°24.404 2°46.189 12.2 280 5.9 100410 81
2008-10-31 08:51:28 51°24.414 2°46.203 11.4 338 5.9 100410 81
2008-10-31 08:51:32 51°24.423 2°46.215 13.3 287 5.9 100410 83
2008-10-31 08:51:38 51°24.435 2°46.232 11.7 339 5.9 100410 83
2008-10-31 08:51:43 51°24.446 2°46.247 13 342 5.9 100410 82
2008-10-31 08:51:48 51°24.456 2°46.261 13.5 343 5.9 100410 82
2008-10-31 08:51:52 51°24.465 2°46.273 14.1 284 5.9 100410 83
2008-10-31 08:51:58 51°24.478 2°46.289 13 343 5.9 100410 83
2008-10-31 08:52:03 51°24.488 2°46.304 13.7 343 5.9 100400 83
2008-10-31 08:52:08 51°24.499 2°46.317 12 340 5.9 100400 83
2008-10-31 08:52:12 51°24.508 2°46.329 12.3 280 5.9 100410 83
2008-10-31 08:52:18 51°24.521 2°46.345 12.1 337 5.9 100410 83
2008-10-31 08:52:23 51°24.532 2°46.359 14.4 337 5.9 100400 84
2008-10-31 08:52:28 51°24.543 2°46.373 11.8 339 5.9 100400 84
2008-10-31 08:52:33 51°24.553 2°46.387 13.2 340 6 100400 84
2008-10-31 08:52:38 51°24.564 2°46.401 13 340 6 100400 84
2008-10-31 08:52:43 51°24.574 2°46.415 13 341 6 100400 85
2008-10-31 08:52:48 51°24.585 2°46.429 11.8 344 6 100400 85
2008-10-31 08:52:52 51°24.593 2°46.441 13.2 343 6 100410 84
2008-10-31 08:52:58 51°24.606 2°46.458 10.8 343 6 100410 84
2008-10-31 08:53:03 51°24.616 2°46.472 11.2 344 6 100400 84
2008-10-31 08:53:08 51°24.627 2°46.487 13.8 344 6 100400 84
2008-10-31 08:53:12 51°24.635 2°46.498 14.4 344 6 100410 84
2008-10-31 08:53:18 51°24.648 2°46.516 13.1 344 6 100410 84
2008-10-31 08:53:23 51°24.657 2°46.531 12 337 6 100410 85
2008-10-31 08:53:28 51°24.667 2°46.547 13.3 339 6 100410 85
2008-10-31 08:53:32 51°24.675 2°46.559 13.7 338 6 100400 84
2008-10-31 08:53:38 51°24.687 2°46.578 12.8 340 6 100400 84
2008-10-31 08:53:43 51°24.696 2°46.594 10.9 339 6 100390 85
2008-10-31 08:53:48 51°24.706 2°46.61 11.5 337 6 100390 85
2008-10-31 08:53:52 51°24.714 2°46.623 12.7 336 6 100410 84
2008-10-31 08:53:58 51°24.725 2°46.642 10.9 338 6 100410 84
2008-10-31 08:54:03 51°24.735 2°46.658 15.2 282 6 100410 85
2008-10-31 08:54:08 51°24.744 2°46.674 11.6 338 6 100410 85
2008-10-31 08:54:12 51°24.752 2°46.686 12.2 341 6 100410 85
2008-10-31 08:54:18 51°24.763 2°46.705 14 339 6 100410 85
2008-10-31 08:54:23 51°24.772 2°46.721 13 339 6 100410 85
2008-10-31 08:54:28 51°24.781 2°46.739 13.4 340 6 100410 85
2008-10-31 08:54:32 51°24.789 2°46.751 11.7 337 6 100400 85
2008-10-31 08:54:38 51°24.8 2°46.772 12.7 340 6 100400 85
2008-10-31 08:54:43 51°24.809 2°46.788 12.8 338 6 100400 84
2008-10-31 08:54:48 51°24.817 2°46.806 11.9 338 6 100400 84
2008-10-31 08:54:52 51°24.824 2°46.82 13.3 336 5.9 100410 83
2008-10-31 08:54:58 51°24.835 2°46.841 14.2 339 5.9 100410 83
2008-10-31 08:55:03 51°24.843 2°46.858 13.5 335 5.9 100410 84
2008-10-31 08:55:08 51°24.852 2°46.875 14.9 339 5.9 100410 84
2008-10-31 08:55:12 51°24.859 2°46.89 14.9 339 5.9 100410 83
2008-10-31 08:55:18 51°24.869 2°46.91 14.7 338 5.9 100410 83
2008-10-31 08:55:23 51°24.878 2°46.928 15.4 338 6 100400 83
2008-10-31 08:55:28 51°24.886 2°46.945 12.3 338 6 100400 83
2008-10-31 08:55:32 51°24.894 2°46.959 14 338 6 100400 84
2008-10-31 08:55:38 51°24.904 2°46.98 11.2 338 6 100400 84
2008-10-31 08:55:43 51°24.913 2°46.997 11.8 339 5.9 100400 84
2008-10-31 08:55:48 51°24.922 2°47.014 11.2 339 5.9 100400 84
2008-10-31 08:55:52 51°24.929 2°47.028 13.7 340 5.9 100410 83
2008-10-31 08:55:58 51°24.94 2°47.048 11.6 339 5.9 100410 83
2008-10-31 08:56:03 51°24.948 2°47.066 13.3 285 5.9 100410 84
2008-10-31 08:56:08 51°24.957 2°47.083 11.2 340 5.9 100410 84
2008-10-31 08:56:12 51°24.964 2°47.097 11.8 340 5.9 100410 83
2008-10-31 08:56:18 51°24.975 2°47.118 13.7 337 5.9 100410 83
2008-10-31 08:56:23 51°24.984 2°47.136 15 285 5.9 100410 82
2008-10-31 08:56:28 51°24.992 2°47.153 14 339 5.9 100410 82
2008-10-31 08:56:32 51°24.999 2°47.167 13.9 338 5.9 100410 83
2008-10-31 08:56:38 51°25.01 2°47.188 11.5 341 5.9 100410 83
2008-10-31 08:56:43 51°25.018 2°47.205 12 338 5.9 100410 84
2008-10-31 08:56:48 51°25.027 2°47.223 13.3 339 5.9 100410 84
2008-10-31 08:56:52 51°25.034 2°47.237 11.8 340 5.9 100400 84
2008-10-31 08:56:58 51°25.044 2°47.257 12.8 339 5.9 100400 84
2008-10-31 08:57:03 51°25.053 2°47.274 15 339 5.9 100410 84
2008-10-31 08:57:08 51°25.062 2°47.292 14.6 338 5.9 100410 84
2008-10-31 08:57:12 51°25.069 2°47.305 13.1 335 6 100400 84
2008-10-31 08:57:18 51°25.08 2°47.326 13.4 338 6 100400 84
2008-10-31 08:57:23 51°25.089 2°47.343 13.4 336 6 100420 86
2008-10-31 08:57:28 51°25.097 2°47.361 12.4 338 6 100420 86
2008-10-31 08:57:32 51°25.105 2°47.375 13.6 337 6 100410 85
2008-10-31 08:57:38 51°25.115 2°47.396 12.4 335 6 100410 85
2008-10-31 08:57:43 51°25.124 2°47.413 12.6 337 6 100410 85
2008-10-31 08:57:48 51°25.132 2°47.431 13.7 337 6 100410 85
2008-10-31 08:57:52 51°25.138 2°47.446 11.4 336 6 100420 85
2008-10-31 08:57:58 51°25.149 2°47.467 12.1 337 6 100420 85
2008-10-31 08:58:03 51°25.157 2°47.486 12.4 282 5.9 100410 85
2008-10-31 08:58:08 51°25.165 2°47.505 14.4 340 5.9 100410 85
2008-10-31 08:58:12 51°25.171 2°47.519 13.5 337 5.9 100410 84
2008-10-31 08:58:18 51°25.18 2°47.541 12.5 338 5.9 100410 84
2008-10-31 08:58:23 51°25.188 2°47.56 13.5 337 5.9 100420 84
2008-10-31 08:58:28 51°25.196 2°47.578 12.8 334 5.9 100420 84
2008-10-31 08:58:33 51°25.203 2°47.597 15 334 5.9 100420 84
2008-10-31 08:58:38 51°25.212 2°47.615 12.3 339 5.9 100420 84
2008-10-31 08:58:43 51°25.22 2°47.633 12.3 339 6 100410 85
2008-10-31 08:58:48 51°25.227 2°47.652 15.1 335 6 100410 85
2008-10-31 08:58:53 51°25.236 2°47.67 12.9 336 6 100420 85
2008-10-31 08:58:58 51°25.243 2°47.689 15.4 337 6 100420 85
2008-10-31 08:59:03 51°25.25 2°47.708 14 338 6 100410 84
2008-10-31 08:59:08 51°25.258 2°47.727 13.3 333 6 100410 84
2008-10-31 08:59:12 51°25.264 2°47.743 13.1 335 5.9 100420 84
2008-10-31 08:59:18 51°25.272 2°47.766 14.6 335 5.9 100420 84
2008-10-31 08:59:23 51°25.279 2°47.786 13.1 334 5.9 100410 84
2008-10-31 08:59:28 51°25.286 2°47.805 15.6 339 5.9 100410 84
2008-10-31 08:59:33 51°25.293 2°47.825 12.8 286 5.9 100400 85
2008-10-31 08:59:38 51°25.301 2°47.844 15 335 5.9 100400 85
2008-10-31 08:59:43 51°25.308 2°47.863 12.1 336 5.9 100420 84
2008-10-31 08:59:48 51°25.315 2°47.882 12 341 5.9 100420 84
2008-10-31 08:59:53 51°25.322 2°47.902 14.2 278 6 100410 85
2008-10-31 08:59:58 51°25.33 2°47.921 13.7 341 6 100410 85
2008-10-31 09:00:03 51°25.336 2°47.941 11.9 341 5.9 100410 84
2008-10-31 09:00:08 51°25.343 2°47.961 12.5 339 5.9 100410 84
2008-10-31 09:00:12 51°25.349 2°47.976 13.5 340 6 100420 85
2008-10-31 09:00:18 51°25.357 2°48 15.2 338 6 100420 85
2008-10-31 09:00:23 51°25.365 2°48.019 12.3 286 6 100430 85
2008-10-31 09:00:28 51°25.372 2°48.038 13.2 339 6 100430 85
2008-10-31 09:00:32 51°25.378 2°48.053 14.8 338 6 100420 85
2008-10-31 09:00:38 51°25.386 2°48.077 14.8 340 6 100420 85
2008-10-31 09:00:43 51°25.394 2°48.095 14.7 338 6 100420 85
2008-10-31 09:00:48 51°25.402 2°48.115 16.2 337 6 100420 85
2008-10-31 09:00:53 51°25.409 2°48.134 14.9 337 5.9 100420 84
2008-10-31 09:00:58 51°25.417 2°48.153 13 336 5.9 100420 84
2008-10-31 09:01:03 51°25.424 2°48.173 14.3 336 6 100420 84
2008-10-31 09:01:08 51°25.432 2°48.192 12.2 337 6 100420 84
2008-10-31 09:01:13 51°25.439 2°48.211 11.6 336 6 100410 85
2008-10-31 09:01:18 51°25.446 2°48.231 13.5 339 6 100410 85
2008-10-31 09:01:23 51°25.454 2°48.25 13.3 340 5.9 100410 84
2008-10-31 09:01:28 51°25.462 2°48.269 12.2 338 5.9 100410 84
2008-10-31 09:01:32 51°25.468 2°48.285 12.8 337 5.9 100420 83
2008-10-31 09:01:38 51°25.477 2°48.308 13.4 338 5.9 100420 83
2008-10-31 09:01:43 51°25.484 2°48.328 14.3 339 5.9 100420 84
2008-10-31 09:01:48 51°25.491 2°48.347 14.2 337 5.9 100420 84
2008-10-31 09:01:53 51°25.499 2°48.367 13.5 282 5.9 100430 85
2008-10-31 09:01:58 51°25.506 2°48.387 13.4 337 5.9 100430 85
2008-10-31 09:02:03 51°25.513 2°48.406 13 337 5.9 100410 85
2008-10-31 09:02:08 51°25.52 2°48.426 13.5 334 5.9 100410 85
2008-10-31 09:02:12 51°25.526 2°48.441 13.6 336 5.8 100410 84
2008-10-31 09:02:18 51°25.535 2°48.466 12.7 333 5.8 100410 84
2008-10-31 09:02:23 51°25.542 2°48.486 14.2 334 5.9 100430 84
2008-10-31 09:02:28 51°25.549 2°48.506 14.4 337 5.9 100430 84
2008-10-31 09:02:32 51°25.554 2°48.522 15.2 335 5.9 100420 84
2008-10-31 09:02:38 51°25.563 2°48.545 12.5 333 5.9 100420 84
2008-10-31 09:02:43 51°25.569 2°48.566 13.1 335 5.8 100420 83
2008-10-31 09:02:48 51°25.576 2°48.585 13.4 338 5.8 100420 83
2008-10-31 09:02:52 51°25.582 2°48.601 15.9 337 5.8 100420 83